Date,TemperatureHighF,TemperatureAvgF,TemperatureLowF,DewpointHighF,DewpointAvgF,DewpointLowF,HumidityHigh,HumidityAvg,HumidityLow,PressureMaxIn,PressureMinIn,WindSpeedMaxMPH,WindSpeedAvgMPH,GustSpeedMaxMPH,PrecipitationSumIn
2013-1-1,38.0,35.8,34.0,26.0,17.9,9.0,66,49,34,0.00,40.00,31,20,47,0.00
2013-1-2,45.0,39.0,34.0,11.0,6.7,3.0,36,26,18,0.00,40.00,35,24,51,0.00
2013-1-3,46.0,42.2,38.0,10.0,4.3,-4.0,27,20,14,0.00,40.00,27,17,38,0.00
2013-1-4,50.0,42.2,37.0,1.0,-1.7,-7.0,20,16,12,0.00,40.00,19,13,30,0.00
2013-1-5,55.0,46.5,41.0,4.0,-3.9,-9.0,15,12,9,0.00,40.00,16,8,21,0.00
2013-1-6,43.0,37.3,33.0,38.0,24.6,0.0,100,67,17,0.00,40.00,20,11,29,0.00
2013-1-7,48.0,40.0,32.0,35.0,22.6,10.0,100,57,21,0.00,40.00,15,8,26,0.00
2013-1-8,61.0,53.5,45.0,25.0,15.6,3.0,36,23,15,0.00,40.00,15,8,22,0.00
2013-1-9,64.0,53.1,45.0,41.0,27.1,22.0,74,39,21,0.00,40.00,19,10,23,0.00
2013-1-10,45.0,35.8,30.0,39.0,32.5,25.0,100,89,47,0.00,40.00,23,16,37,0.00
2013-1-11,36.0,29.4,25.0,26.0,19.7,9.0,95,70,34,0.00,40.00,19,9,27,0.00
2013-1-12,38.0,30.8,25.0,27.0,16.8,5.0,100,60,32,0.00,40.00,14,6,21,0.00
2013-1-13,39.0,31.4,26.0,24.0,13.4,4.0,76,48,30,0.00,40.00,16,9,22,0.00
2013-1-14,36.0,27.8,22.0,12.0,-2.2,-12.0,52,28,12,0.00,40.00,24,15,35,0.00
2013-1-15,40.0,31.5,25.0,11.0,2.0,-7.0,34,28,23,0.00,40.00,32,20,44,0.00
2013-1-16,47.0,42.7,37.0,16.0,13.9,11.0,37,31,26,0.00,40.00,37,23,53,0.00
2013-1-17,52.0,48.0,45.0,13.0,10.5,9.0,26,22,18,0.00,40.00,35,27,49,0.00
2013-1-18,55.0,50.3,47.0,14.0,11.3,9.0,22,20,18,0.00,40.00,29,22,39,0.00
2013-1-19,57.0,51.3,48.0,12.0,8.8,4.0,22,18,15,0.00,40.00,23,18,35,0.00
2013-1-20,59.0,53.3,49.0,6.0,4.0,-1.0,16,13,11,0.00,40.00,19,13,27,0.00
2013-1-21,59.0,53.9,50.0,3.0,0.3,-3.0,12,11,9,0.00,40.00,23,16,34,0.00
2013-1-22,65.0,57.1,52.0,21.0,3.8,-3.0,24,12,9,0.00,40.00,22,13,31,0.00
2013-1-23,66.0,59.2,54.0,32.0,24.7,14.0,37,27,19,0.00,40.00,14,8,21,0.00
2013-1-24,55.0,51.2,46.0,53.0,43.6,27.0,100,78,35,0.00,40.00,20,6,27,0.00
2013-1-25,52.0,48.6,46.0,49.0,45.3,37.0,100,89,65,0.00,40.00,20,12,28,0.00
2013-1-26,49.0,47.4,45.0,49.0,47.2,44.0,100,99,82,0.00,40.00,12,7,18,0.00
2013-1-27,45.0,40.1,32.0,45.0,40.0,32.0,100,100,98,0.00,40.00,19,12,32,0.00
2013-1-28,39.0,34.0,30.0,33.0,29.9,21.0,100,86,49,0.00,40.00,16,12,25,0.00
2013-1-29,48.0,37.9,30.0,39.0,31.9,24.0,100,80,47,0.00,40.00,16,9,24,0.00
2013-1-30,53.0,47.1,42.0,33.0,25.2,21.0,63,43,31,0.00,40.00,30,15,43,0.00
2013-1-31,56.0,52.3,48.0,28.0,26.3,25.0,42,36,33,0.00,40.00,24,17,36,0.00
2013-2-1,62.0,55.1,50.0,27.0,23.5,21.0,37,29,23,0.00,40.00,16,11,22,0.00
2013-2-2,62.0,56.3,53.0,25.0,20.5,15.0,29,25,19,0.00,40.00,19,12,27,0.00
2013-2-3,59.0,53.2,49.0,42.0,36.6,22.0,76,54,25,0.00,40.00,12,6,20,0.00
2013-2-4,60.0,54.0,47.0,42.0,30.3,23.0,66,42,24,0.00,40.00,14,6,23,0.00
2013-2-5,62.0,52.4,41.0,43.0,30.7,21.0,100,48,27,0.00,40.00,11,6,16,0.00
2013-2-6,54.0,45.8,34.0,40.0,33.4,19.0,100,65,27,0.00,40.00,10,5,14,0.00
2013-2-7,58.0,49.1,36.0,43.0,27.4,14.0,100,49,19,0.00,40.00,15,6,23,0.00
2013-2-8,37.0,32.4,29.0,35.0,32.0,29.0,100,99,80,0.00,40.00,20,15,32,0.00
2013-2-9,35.0,30.9,28.0,35.0,30.7,28.0,100,99,94,0.00,40.00,16,10,24,0.00
2013-2-10,36.0,32.1,28.0,34.0,29.9,27.0,100,92,72,0.00,40.00,13,8,20,0.00
2013-2-11,40.0,34.3,29.0,31.0,21.6,1.0,100,65,25,0.00,40.00,12,6,18,0.00
2013-2-12,48.0,39.5,33.0,9.0,5.4,1.0,31,24,17,0.00,40.00,14,8,20,0.00
2013-2-13,58.0,48.0,37.0,29.0,15.2,6.0,46,27,18,0.00,40.00,20,8,28,0.00
2013-2-14,56.0,51.5,46.0,21.0,18.6,16.0,30,27,24,0.00,40.00,28,14,40,0.00
2013-2-15,55.0,50.8,48.0,19.0,13.3,7.0,30,23,16,0.00,40.00,44,31,59,0.00
2013-2-16,60.0,53.8,50.0,13.0,7.6,-1.0,20,16,10,0.00,40.00,33,19,44,0.00
2013-2-17,57.0,49.6,43.0,29.0,14.8,7.0,42,26,16,0.00,40.00,15,7,23,0.00
2013-2-18,60.0,47.7,36.0,41.0,23.0,6.0,100,46,12,0.00,40.00,11,6,18,0.00
2013-2-19,36.0,33.5,31.0,36.0,33.4,30.0,100,100,88,0.00,40.00,22,12,33,0.00
2013-2-20,35.0,30.5,26.0,32.0,29.7,26.0,100,97,80,0.00,40.00,27,15,38,0.00
2013-2-21,39.0,32.9,27.0,35.0,30.4,19.0,100,92,54,0.00,40.00,11,5,16,0.00
2013-2-22,51.0,42.3,33.0,28.0,15.1,7.0,64,34,24,0.00,40.00,10,5,19,0.00
2013-2-23,53.0,44.4,36.0,31.0,23.2,15.0,78,44,29,0.00,40.00,16,8,24,0.00
2013-2-24,44.0,39.0,35.0,24.0,3.7,-4.0,54,24,15,0.00,40.00,29,16,44,0.00
2013-2-25,56.0,43.3,35.0,15.0,6.2,-2.0,38,22,13,0.00,40.00,15,9,20,0.00
2013-2-26,52.0,45.7,39.0,13.0,8.1,-10.0,31,21,8,0.00,40.00,26,13,37,0.00
2013-2-27,50.0,44.5,40.0,9.0,4.0,-3.0,26,19,13,0.00,40.00,23,16,35,0.00
2013-2-28,55.0,49.8,44.0,6.0,1.5,-2.0,17,13,11,0.00,40.00,29,19,44,0.00
2013-3-1,62.0,55.7,51.0,16.0,9.5,4.0,20,16,13,0.00,40.00,29,21,44,0.00
2013-3-2,72.0,60.6,52.0,23.0,17.4,12.0,27,19,10,0.00,40.00,20,11,27,0.00
2013-3-3,63.0,53.6,43.0,30.0,18.4,10.0,60,27,15,0.00,40.00,19,11,26,0.00
2013-3-4,58.0,48.8,38.0,45.0,38.2,30.0,100,69,40,0.00,40.00,17,8,25,0.00
2013-3-5,61.0,52.9,39.0,42.0,32.8,28.0,100,49,29,0.00,40.00,13,6,21,0.00
2013-3-6,56.0,43.0,36.0,39.0,37.1,34.0,100,83,44,0.00,40.00,15,8,23,0.00
2013-3-7,46.0,40.7,38.0,42.0,37.7,34.0,100,90,68,0.00,40.00,17,9,25,0.00
2013-3-8,39.0,33.3,31.0,39.0,33.3,31.0,100,100,96,0.00,40.00,17,11,27,0.00
2013-3-9,43.0,36.9,33.0,39.0,34.7,27.0,100,93,53,0.00,40.00,18,10,28,0.00
2013-3-10,56.0,48.9,41.0,28.0,19.4,12.0,58,32,19,0.00,40.00,17,9,27,0.00
2013-3-11,65.0,56.3,45.0,32.0,14.7,5.0,32,19,15,0.00,40.00,15,8,23,0.00
2013-3-12,68.0,60.8,54.0,22.0,15.7,8.0,26,17,14,0.00,40.00,24,12,35,0.00
2013-3-13,72.0,64.8,59.0,23.0,20.4,18.0,23,18,13,0.00,40.00,21,12,30,0.00
2013-3-14,76.0,67.4,60.0,41.0,23.9,20.0,40,20,13,0.00,40.00,26,10,35,0.00
2013-3-15,76.0,67.6,56.0,35.0,28.3,18.0,42,24,14,0.00,40.00,12,7,19,0.00
2013-3-16,70.0,59.2,50.0,44.0,22.7,7.0,81,28,13,0.00,40.00,16,8,23,0.00
2013-3-17,69.0,56.6,47.0,49.0,33.3,22.0,99,45,20,0.00,40.00,11,6,19,0.00
2013-3-18,64.0,54.2,46.0,46.0,34.7,11.0,85,51,16,0.00,40.00,10,6,17,0.00
2013-3-19,66.0,55.0,47.0,42.0,32.4,25.0,79,44,24,0.00,40.00,22,9,33,0.00
2013-3-20,67.0,56.6,46.0,37.0,32.2,27.0,64,41,22,0.00,40.00,17,9,28,0.00
2013-3-21,60.0,50.2,43.0,46.0,38.5,31.0,100,66,44,0.00,40.00,12,7,17,0.00
2013-3-22,65.0,49.2,35.0,47.0,39.8,20.0,100,76,18,0.00,40.00,12,7,17,0.00
2013-3-23,62.0,55.0,45.0,35.0,14.8,-3.0,65,22,10,0.00,40.00,23,10,32,0.00
2013-3-24,66.0,57.4,50.0,43.0,23.5,12.0,70,30,14,0.00,40.00,13,6,20,0.00
2013-3-25,72.0,61.4,55.0,41.0,26.9,11.0,56,29,16,0.00,40.00,11,5,18,0.00
2013-3-26,67.0,57.2,49.0,35.0,27.0,16.0,48,32,15,0.00,40.00,13,7,20,0.00
2013-3-27,63.0,53.1,47.0,37.0,27.6,16.0,67,38,25,0.00,40.00,15,8,24,0.00
2013-3-28,68.0,56.9,46.0,44.0,35.7,26.0,78,48,27,0.00,40.00,14,6,20,0.00
2013-3-29,71.0,61.6,51.0,48.0,34.4,24.0,90,39,23,0.00,40.00,11,5,18,0.00
2013-3-30,67.0,57.9,49.0,48.0,38.3,-99.9,94,53,23,0.00,40.00,14,7,21,0.00
2013-3-31,59.0,50.4,43.0,46.0,40.0,28.0,100,70,42,0.00,40.00,17,10,26,0.00
2013-4-1,56.0,46.1,39.0,42.0,38.4,27.0,100,78,38,0.00,40.00,20,13,28,0.00
2013-4-2,64.0,51.1,42.0,47.0,42.3,32.0,100,75,40,0.00,40.00,17,9,27,0.00
2013-4-3,72.0,63.4,54.0,41.0,29.8,22.0,49,29,15,0.00,40.00,13,7,20,0.00
2013-4-4,68.0,61.1,51.0,41.0,29.3,20.0,69,32,20,0.00,40.00,15,7,22,0.00
2013-4-5,63.0,52.7,46.0,48.0,41.7,36.0,93,68,36,0.00,40.00,17,11,25,0.00
2013-4-6,65.0,51.5,42.0,49.0,44.9,41.0,100,81,47,0.00,40.00,15,8,21,0.00
2013-4-7,67.0,54.2,45.0,50.0,45.9,41.0,100,77,42,0.00,40.00,11,7,18,0.00
2013-4-8,47.0,40.5,36.0,47.0,40.3,36.0,100,99,78,0.00,40.00,25,15,37,0.00
2013-4-9,58.0,44.9,35.0,39.0,32.2,22.0,100,66,30,0.00,40.00,15,9,26,0.00
2013-4-10,66.0,54.8,44.0,26.0,18.0,10.0,47,24,11,0.00,40.00,16,9,29,0.00
2013-4-11,68.0,58.6,48.0,40.0,25.1,6.0,60,30,13,0.00,40.00,15,9,25,0.00
2013-4-12,70.0,61.6,51.0,35.0,25.2,18.0,54,28,14,0.00,40.00,21,8,28,0.00
2013-4-13,70.0,61.6,48.0,45.0,32.3,18.0,78,37,17,0.00,40.00,16,8,24,0.00
2013-4-14,60.0,49.7,42.0,45.0,39.7,26.0,100,70,42,0.00,40.00,15,9,22,0.00
2013-4-15,46.0,42.3,39.0,45.0,42.0,39.0,100,99,90,0.00,40.00,16,11,24,0.00
2013-4-16,47.0,38.7,34.0,39.0,34.4,31.0,100,86,55,0.00,40.00,20,14,31,0.00
2013-4-17,57.0,45.1,33.0,36.0,17.5,1.0,100,47,12,0.00,40.00,15,10,24,0.00
2013-4-18,57.0,50.5,44.0,14.0,6.4,0.0,24,17,13,0.00,40.00,25,14,37,0.00
2013-4-19,68.0,58.3,48.0,16.0,6.2,0.0,20,12,8,0.00,40.00,22,14,34,0.00
2013-4-20,74.0,64.7,52.0,29.0,15.6,5.0,29,16,10,0.00,40.00,16,8,26,0.00
2013-4-21,78.0,69.8,61.0,34.0,22.8,13.0,32,18,11,0.00,40.00,13,6,23,0.00
2013-4-22,74.0,63.2,53.0,45.0,28.4,13.0,72,30,13,0.00,40.00,14,7,20,0.00
2013-4-23,71.0,61.9,51.0,38.0,23.6,17.0,60,25,14,0.00,40.00,24,11,35,0.00
2013-4-24,71.0,57.6,44.0,49.0,36.1,17.0,100,55,13,0.00,40.00,15,7,22,0.00
2013-4-25,63.0,48.7,41.0,46.0,42.2,39.0,100,81,46,0.00,40.00,16,10,23,0.00
2013-4-26,75.0,63.4,46.0,45.0,31.5,18.0,93,37,16,0.00,40.00,15,6,20,0.00
2013-4-27,79.0,70.6,63.0,35.0,20.4,9.0,30,16,7,0.00,40.00,16,8,23,0.00
2013-4-28,81.0,73.2,65.0,28.0,19.5,9.0,21,13,7,0.00,40.00,18,10,27,0.00
2013-4-29,80.0,69.7,61.0,39.0,27.8,11.0,44,22,14,0.00,40.00,16,8,22,0.00
2013-4-30,72.0,63.3,52.0,47.0,33.6,9.0,81,39,13,0.00,40.00,13,9,21,0.00
2013-5-1,74.0,64.1,49.0,45.0,25.5,4.0,78,31,8,0.00,40.00,26,13,36,0.00
2013-5-2,69.0,63.4,57.0,7.0,-0.0,-5.0,10,8,6,0.00,40.00,29,21,43,0.00
2013-5-3,76.0,67.4,61.0,24.0,8.7,-3.0,21,11,7,0.00,40.00,21,11,30,0.00
2013-5-4,73.0,62.8,48.0,34.0,16.0,5.0,57,18,8,0.00,40.00,16,8,26,0.00
2013-5-5,58.0,48.7,44.0,48.0,40.1,30.0,100,74,48,0.00,40.00,15,9,25,0.00
2013-5-6,48.0,45.8,44.0,48.0,45.8,44.0,100,100,100,0.00,40.00,19,13,28,0.00
2013-5-7,51.0,45.4,42.0,47.0,43.4,40.0,100,93,70,0.00,40.00,19,13,32,0.00
2013-5-8,57.0,46.4,39.0,47.0,43.5,37.0,100,91,66,0.00,40.00,13,8,20,0.00
2013-5-9,62.0,50.4,42.0,51.0,46.4,42.0,100,88,60,0.00,40.00,14,7,20,0.00
2013-5-10,73.0,61.9,45.0,49.0,38.3,-99.9,100,49,21,0.00,40.00,15,7,22,0.00
2013-5-11,79.0,71.8,62.0,42.0,29.9,-99.9,48,23,14,0.00,40.00,20,9,29,0.00
2013-5-12,82.0,76.9,70.0,30.0,25.2,22.0,21,15,11,0.00,40.00,15,8,27,0.00
2013-5-13,88.0,79.8,73.0,33.0,25.7,21.0,20,14,10,0.00,40.00,16,6,25,0.00
2013-5-14,84.0,72.0,59.0,35.0,25.8,14.0,37,19,9,0.00,40.00,17,10,26,0.00
2013-5-15,74.0,63.4,54.0,46.0,30.2,16.0,63,31,18,0.00,40.00,16,9,24,0.00
2013-5-16,74.0,57.9,51.0,45.0,19.6,-99.9,79,39,10,0.00,40.00,14,8,21,0.00
2013-5-17,66.0,54.4,47.0,48.0,40.6,-99.9,95,68,44,0.00,40.00,17,10,24,0.00
2013-5-18,69.0,55.0,45.0,49.0,45.9,42.0,100,75,40,0.00,40.00,15,9,23,0.00
2013-5-19,76.0,61.9,49.0,50.0,45.0,39.0,93,58,29,0.00,40.00,11,6,20,0.00
2013-5-20,79.0,70.2,59.0,47.0,31.4,21.0,61,27,13,0.00,40.00,23,10,34,0.00
2013-5-21,80.0,71.8,60.0,48.0,32.0,17.0,59,26,13,0.00,40.00,14,8,23,0.00
2013-5-22,73.0,62.5,47.0,43.0,29.3,9.0,80,32,9,0.00,40.00,15,10,26,0.00
2013-5-23,68.0,53.7,39.0,45.0,33.7,12.0,100,53,14,0.00,40.00,16,9,24,0.00
2013-5-24,71.0,57.8,46.0,43.0,30.4,10.0,87,41,12,0.00,40.00,13,7,19,0.00
2013-5-25,70.0,58.9,50.0,45.0,22.1,-11.0,76,29,6,0.00,40.00,13,8,20,0.00
2013-5-26,68.0,56.4,47.0,43.0,34.9,23.0,81,46,27,0.00,40.00,14,9,22,0.00
2013-5-27,72.0,58.6,49.0,48.0,38.9,29.0,84,50,28,0.00,40.00,15,9,23,0.00
2013-5-28,69.0,58.3,48.0,53.0,44.4,37.0,100,62,40,0.00,40.00,20,12,28,0.00
2013-5-29,80.0,66.3,53.0,49.0,41.1,34.0,82,43,20,0.00,40.00,19,8,26,0.00
2013-5-30,80.0,67.9,54.0,49.0,42.8,35.0,80,43,24,0.00,40.00,11,6,19,0.00
2013-5-31,84.0,72.4,59.0,52.0,39.4,27.0,64,33,14,0.00,40.00,15,6,23,0.00
2013-6-1,89.0,79.4,71.0,48.0,37.8,27.0,42,24,11,0.00,40.00,22,10,30,0.00
2013-6-2,84.0,75.6,64.0,48.0,30.2,21.0,53,21,12,0.00,40.00,13,7,19,0.00
2013-6-3,79.0,68.9,61.0,51.0,34.0,21.0,69,30,16,0.00,40.00,11,6,20,0.00
2013-6-4,78.0,68.3,59.0,49.0,27.4,6.0,65,25,8,0.00,40.00,12,6,19,0.00
2013-6-5,84.0,69.7,60.0,51.0,30.2,5.0,70,26,9,0.00,40.00,12,6,18,0.00
2013-6-6,85.0,70.6,59.0,51.0,37.5,22.0,68,33,16,0.00,40.00,12,6,18,0.00
2013-6-7,88.0,75.0,62.0,53.0,39.3,9.0,58,31,8,0.00,40.00,12,6,20,0.00
2013-6-8,89.0,77.3,66.0,52.0,39.4,19.0,60,28,10,0.00,40.00,13,5,18,0.00
2013-6-9,85.0,76.8,68.0,30.0,16.6,-1.0,23,11,4,0.00,40.00,12,6,20,0.00
2013-6-10,79.0,73.0,65.0,45.0,27.8,7.0,48,20,8,0.00,40.00,15,10,24,0.00
2013-6-11,88.0,76.9,68.0,53.0,29.5,13.0,56,21,9,0.00,40.00,12,6,18,0.00
2013-6-12,82.0,74.0,65.0,45.0,35.8,26.0,42,26,13,0.00,40.00,13,7,18,0.00
2013-6-13,85.0,75.8,63.0,48.0,30.5,5.0,55,22,8,0.00,40.00,14,9,22,0.00
2013-6-14,83.0,74.0,62.0,45.0,29.5,9.0,51,23,9,0.00,40.00,11,7,19,0.00
2013-6-15,80.0,71.7,62.0,42.0,19.6,5.0,47,17,6,0.00,40.00,13,8,22,0.00
2013-6-16,82.0,73.7,62.0,47.0,23.2,-13.0,58,21,4,0.00,40.00,12,8,20,0.00
2013-6-17,84.0,74.9,61.0,43.0,29.0,22.0,45,21,11,0.00,40.00,13,9,21,0.00
2013-6-18,82.0,72.9,61.0,45.0,29.8,15.0,53,22,13,0.00,40.00,14,10,23,0.00
2013-6-19,80.0,70.5,57.0,44.0,28.5,16.0,55,23,11,0.00,40.00,15,10,22,0.00
2013-6-20,82.0,70.4,59.0,43.0,23.5,18.0,46,19,10,0.00,40.00,13,8,20,0.00
2013-6-21,80.0,76.2,72.0,39.0,34.8,25.0,27,23,13,0.00,40.00,13,12,18,0.00
2013-6-22,82.0,73.3,62.0,45.0,35.1,22.0,51,27,13,0.00,40.00,11,8,19,0.00
2013-6-23,77.0,68.8,56.0,48.0,38.3,29.0,68,35,22,0.00,40.00,14,9,22,0.00
2013-6-24,74.0,64.6,54.0,49.0,39.0,21.0,76,44,15,0.00,40.00,17,11,26,0.00
2013-6-25,83.0,67.4,54.0,55.0,49.4,44.0,80,56,28,0.00,40.00,17,8,25,0.00
2013-6-26,90.0,78.8,62.0,54.0,49.1,45.0,74,39,22,0.00,40.00,11,6,19,0.00
2013-6-27,92.0,83.0,70.0,53.0,45.3,38.0,54,29,16,0.00,40.00,12,7,24,0.00
2013-6-28,95.0,86.7,70.0,49.0,36.5,24.0,46,18,11,0.00,40.00,15,10,23,0.00
2013-6-29,99.0,91.0,79.0,47.0,37.2,24.0,21,16,11,0.00,40.00,15,10,23,0.00
2013-6-30,100.0,91.1,79.0,48.0,39.8,28.0,33,18,9,0.00,40.00,13,8,20,0.00
2013-7-1,92.0,84.8,76.0,47.0,42.4,38.0,34,23,17,0.00,40.00,13,8,19,0.00
2013-7-2,93.0,85.8,79.0,46.0,40.0,37.0,25,20,15,0.00,40.00,16,10,24,0.00
2013-7-3,91.0,81.6,74.0,45.0,37.8,34.0,29,21,14,0.00,40.00,16,13,23,0.00
2013-7-4,94.0,80.6,68.0,46.0,37.0,28.0,34,22,12,0.00,40.00,15,9,24,0.00
2013-7-5,91.0,79.6,67.0,54.0,43.6,34.0,63,31,14,0.00,40.00,13,7,19,0.00
2013-7-6,89.0,76.0,66.0,57.0,51.6,46.0,72,47,24,0.00,40.00,14,6,21,0.00
2013-7-7,92.0,84.6,67.0,56.0,44.0,39.0,67,26,17,0.00,40.00,13,8,21,0.00
2013-7-8,94.0,85.6,82.0,37.0,29.1,-99.9,18,14,10,0.00,40.00,13,8,22,0.00
2013-7-9,93.0,84.7,71.0,51.0,43.5,34.0,49,26,14,0.00,40.00,13,8,22,0.00
2013-7-10,82.0,71.4,66.0,55.0,45.6,-99.9,60,42,31,0.00,40.00,10,5,14,0.00
2013-7-11,74.0,68.4,63.0,60.0,54.7,46.0,77,62,46,0.00,40.00,8,4,13,0.00
2013-7-12,84.0,72.6,61.0,60.0,54.8,48.0,94,58,30,0.00,40.00,15,6,23,0.00
2013-7-13,87.0,77.7,64.0,58.0,51.0,46.0,81,42,25,0.00,40.00,14,7,22,0.00
2013-7-14,89.0,78.5,67.0,52.0,45.0,37.0,56,33,20,0.00,40.00,13,6,21,0.00
2013-7-15,88.0,78.4,69.0,49.0,39.3,30.0,48,26,17,0.00,40.00,21,10,30,0.00
2013-7-16,84.0,76.2,68.0,40.0,27.3,19.0,27,17,10,0.00,40.00,15,12,23,0.00
2013-7-17,90.0,82.7,71.0,38.0,23.2,3.0,30,13,5,0.00,40.00,12,8,19,0.00
2013-7-18,91.0,83.4,71.0,49.0,32.6,20.0,45,19,8,0.00,40.00,14,7,20,0.00
2013-7-19,91.0,82.8,70.0,49.0,36.3,25.0,47,21,12,0.00,40.00,12,6,19,0.00
2013-7-20,83.0,73.0,69.0,65.0,57.6,-99.9,85,61,46,0.00,40.00,18,8,27,0.00
2013-7-21,75.0,69.5,65.0,65.0,62.6,54.0,96,79,53,0.00,40.00,15,7,20,0.00
2013-7-22,76.0,69.4,65.0,68.0,61.6,58.0,94,77,58,0.00,40.00,12,6,19,0.00
2013-7-23,82.0,72.1,64.0,61.0,58.1,52.0,86,63,42,0.00,40.00,14,7,24,0.00
2013-7-24,87.0,73.9,62.0,59.0,55.1,51.0,84,55,33,0.00,40.00,15,7,23,0.00
2013-7-25,89.0,79.0,69.0,55.0,48.2,39.0,60,35,20,0.00,40.00,13,7,19,0.00
2013-11-13,72.0,67.6,63.0,31.0,24.6,18.0,30,20,15,0.00,40.00,19,17,27,0.00
2013-11-14,74.0,67.6,63.0,29.0,23.3,16.0,27,19,13,0.00,40.00,16,13,22,0.00
2013-11-15,49.0,46.5,43.0,44.0,43.2,43.0,100,89,80,0.00,40.00,14,12,22,0.00
2013-11-16,45.0,34.6,42.0,44.0,12.8,-99.9,100,74,77,0.00,40.00,11,8,16,0.00
2013-11-17,57.0,45.5,40.0,40.0,37.8,36.0,95,77,46,0.00,40.00,10,5,15,0.00
2013-11-18,61.0,54.7,45.0,45.0,43.3,40.0,100,70,46,0.00,40.00,8,7,12,0.00
2013-11-19,51.0,46.4,43.0,45.0,43.6,43.0,100,91,74,0.00,40.00,13,9,18,0.00
2013-11-20,53.0,45.6,43.0,47.0,44.2,43.0,100,96,68,0.00,40.00,10,6,19,0.00
2013-12-26,54.0,51.3,50.0,3.0,2.3,1.0,14,13,12,0.00,40.00,32,26,42,0.00
2013-12-27,59.0,55.0,51.0,5.0,1.5,-2.0,11,11,11,0.00,40.00,11,10,16,0.00
2013-12-28,59.0,38.7,57.0,8.0,-28.0,-99.9,14,9,13,0.00,40.00,7,5,12,0.00
2013-12-31,61.0,58.0,55.0,8.0,8.0,8.0,15,14,12,0.00,40.00,7,5,13,0.00
2014-1-1,61.0,57.0,53.0,16.0,7.3,2.0,20,14,10,0.00,40.00,26,18,34,0.00